Location: Arrodets-la-Barthe
(43.0306°N, 0.2829°E)
Time: 14:57:14
(UTC+00:00)

BlueWalker 3 - Pass Details

Date: 08 December 2022
Orbit: 499 x 517 km, 53.2° (Epoch: 28 January)

Event Time Altitude Azimuth Distance (km) Brightness Sun altitude
Rises 19:00:11 0° 304° (WNW) 2,624 6.3 -27.7°
Reaches altitude 10° 19:02:24 10° 300° (WNW) 1,731 5.3 -28.1°
Enters shadow 19:04:27 28° 291° (WNW) 967 3.8 -28.5°
